Regional Weather Roundup
Issued by NWS

Home | Current Version | Previous Version | Graphics & Text | Print | Product List | Glossary On
Versions: 1 2 3 4 5 6 7 8 9 10 11 12 13 14 15 16 17 18 19 20 21 22 23 24 25 26 27 28 29 30 31 32 33 34 35 36 37 38 39 40 41 42 43 44 45 46 47 48 49 50
000
ASUS43 KDTX 171010
RWRMI
MICHIGAN HOURLY REGIONAL WEATHER ROUNDUP
NATIONAL WEATHER SERVICE DETROIT/PONTIAC MI
500 AM EST SAT FEB 17 2018

NOTE: "FAIR" INDICATES FEW OR NO CLOUDS BELOW 12,000 FEET WITH NO
SIGNIFICANT WEATHER AND/OR OBSTRUCTION TO VISIBILITY.

MIZ047>049-052>055-059>063-066>070-074>076-081>083-171100-
SOUTHEAST LOWER MICHIGAN

CITY           SKY/WX    TMP DP  RH WIND       PRES   REMARKS
ADRIAN         FAIR      22  18  85 S3        30.22F
ALMA           FAIR      20  17  88 S5        30.16F WCI  14
ANN ARBOR      CLOUDY    13  11  92 CALM      30.21F
BAD AXE        FAIR      20  15  81 SW7       30.19S WCI  11
CARO           FAIR      17  14  88 SW5       30.19S WCI  10
DETROIT CITY   MOCLDY    21  16  81 S3        30.24S
DETROIT        FAIR      20  16  84 CALM      30.24F
FLINT          MOCLDY    19  15  84 S6        30.20F WCI  11
GROSSE ILE     FAIR      25  19  75 SW5       30.23F WCI  20
HILLSDALE      CLOUDY    21  18  86 S5        30.17F WCI  15
HOWELL         CLOUDY    21  18  85 S3        30.18F

CITY           SKY/WX    TMP DP  RH WIND       PRES   REMARKS
JACKSON        MOCLDY    23  18  81 SE6       30.18F WCI  16
LAMBERTVILLE   FAIR      21  19  91 S3        30.23F
LANSING        MOCLDY    19  15  84 S7        30.18F WCI  10
LAPEER         FAIR      13  11  92 CALM      30.20S
MASON          CLOUDY    22  16  78 S5        30.18F WCI  16
MONROE         FAIR      22  17  83 S3        30.23F
MT. CLEMENS    MOCLDY    18  18  99 S5        30.21F WCI  11
PONTIAC        MOCLDY    17  13  84 CALM      30.18F
PORT HOPE        N/A     22  15  75 VRB5      30.17R WCI  16
PORT HURON     FAIR      12   9  85 CALM      30.22F
TRI CITIES     FAIR      20  15  81 S8        30.18F WCI  10
MIDLAND        FAIR      20  15  81 CALM      30.16F
TROY           CLOUDY    22  17  79 S3        30.23F
SAGINAW HB     FAIR      21  18  86 S7        30.18F WCI  13
$$
MIZ043>046-050>051-056>058-064>065-071>073-077>080-171100-
SOUTHWEST LOWER MICHIGAN

CITY           SKY/WX    TMP DP  RH WIND       PRES   REMARKS
BATTLE CREEK   FAIR      17  14  88 S7        30.16F WCI   8
BENTON HARBOR  FAIR      18  13  80 S6        30.18F WCI  10
BIG RAPIDS     FAIR      13   9  83 CALM      30.11F
COLDWATER      FAIR      19  17  91 S3        30.17F
FREMONT        FAIR      16   9  74 S3        30.12F
HOLLAND        FAIR      20  16  84 S5        30.16F WCI  13
GRAND RAPIDS   FAIR      20  13  74 S9        30.14F WCI   9
IONIA          CLOUDY    21  16  79 S7        30.15F WCI  13
KALAMAZOO      FAIR      16  12  84 S6        30.17F FOG     WCI   7
LUDINGTON      FAIR      24  14  65 SW8       30.10F WCI  15
MARSHALL       FAIR      19  17  90 S5        30.17F WCI  12
MOUNT PLEASANT FAIR      20  13  74 S6        30.14F WCI  13
MUSKEGON       FAIR      25  12  58 SW13      30.14F WCI  14
SOUTH HAVEN    FAIR      21  17  86 S5        30.16F WCI  14
$$
MIZ016>042-171100-
NORTHERN LOWER MICHIGAN

CITY           SKY/WX    TMP DP  RH WIND       PRES   REMARKS
ALPENA         FAIR      16  10  77 S8        30.11F WCI   5
BEAVER ISLAND  FAIR      22   9  57 SW13      30.03F WCI  10
BELLAIRE       FAIR      14  11  87 CALM      30.10F
CADILLAC       FAIR      14   9  79 S7        30.05F WCI   4
CHARLEVOIX     FAIR      19  11  73 S8        30.09F WCI   9
FRANKFORT      FAIR      26  13  57 SW9       30.08F WCI  17
GAYLORD        FAIR      13   8  81 SW10      30.03F WCI   0
GRAYLING       FAIR      12   8  83 S3        30.07F
HARBOR SPRINGS FAIR      15   9  75 S3        30.05F
HOUGHTON LAKE  FAIR      14   7  73 S6        30.09F WCI   5
MANISTEE       FAIR      12   8  84 E5        30.09F WCI   4
OSCODA         FAIR      17   9  72 SW8       30.15S WCI   6
PELLSTON       FAIR      12   8  84 SE6       30.05F WCI   3
ROGERS CITY    FAIR      16   9  73 SW5       30.09S WCI   9
TRAVERSE CITY  FAIR      20   9  62 S6        30.08F WCI  12
$$
MIZ007>008-015-171100-
EASTERN UPPER MICHIGAN

CITY           SKY/WX    TMP DP  RH WIND       PRES   REMARKS
KINROSS        FAIR      13   6  74 SW6       30.02S WCI   4
MACKINAC ISLAN FAIR      16  10  74 S8        30.03F WCI   6
NEWBERRY       FAIR      12   1  61 SW14      29.97F WCI  -3
S. S. MARIE    FAIR       5   1  83 E3        30.01F
MUNISING         N/A     13  -4  46 S9        29.94F WCI   1
$$
MIZ004>006-011>014-085-171100-
CENTRAL UPPER MICHIGAN

CITY           SKY/WX    TMP DP  RH WIND       PRES   REMARKS
MANISTIQUE     FAIR      16   1  51 SW10G21   29.99F WCI   3
ESCANABA       FAIR      10   2  69 S8        30.00F WCI  -2
MENOMINEE      FAIR      14   4  64 SW9       30.02F WCI   2
SAWYER-GWINN   FAIR       9  -5  53 S9        29.90F WCI  -4
$$
MIZ001>003-009>011-084-171100-
WESTERN UPPER MICHIGAN

CITY           SKY/WX    TMP DP  RH WIND       PRES   REMARKS
IRON MOUNTAIN  FAIR      10  -3  55 SE8       29.91F WCI  -2
HOUGHTON       CLOUDY    17   2  51 SW8       29.79F WCI   7
COPPER HARBOR    N/A     17  -1  45 W12G18    29.80F WCI   4
IRONWOOD       CLOUDY    16   8  71 SW12G20   29.82F WCI   3
$$

ABBREVIATIONS USED IN REMARKS
   TC - TEMPERATURE IN CELSIUS
  WCI - WIND CHILL INDEX
   HX - HEAT INDEX
  VSB - VISIBILITY





USA.gov is the U.S. government's official web portal to all federal, state and local government web resources and services.